Piarco, Trinidad And Tobago

12:00 AM AST on February 26, 2018 (GMT -0400)
Piarco International

Weather History for TTPP - November, 2013

Change the Weather History Date:

Monday, November 25, 2013

  Actual Average Record
Temperature  
Mean Temperature 80 °F -  
Max Temperature 87 °F 85 °F 95 °F (1999)
Min Temperature 72 °F 72 °F 71 °F (1999)
Cooling Degree Days 14    
Growing Degree Days 30 (Base 50)    
Moisture  
Dew Point 75 °F    
Average Humidity 91    
Maximum Humidity 100    
Minimum Humidity 70    
Precipitation  
Precipitation 0.08 in 0.22 in - ()
Sea Level Pressure  
Sea Level Pressure 29.86 in    
Wind  
Wind Speed 5 mph ()    
Max Wind Speed 24 mph    
Max Gust Speed -    
Visibility 5.6 miles    
Events Rain    
Averages and records for this station are not official NWS values.
T = Trace of Precipitation, MM = Missing Value Source: Averaged Metar Reports

Daily Weather History Graph

Daily Weather History Graph

Search for Another Location

Airport or City:

Trip Planner

Search our weather history database for the weather conditions in past years. The results will help you decide how hot, cold, wet, or windy it might be!

Date:

Astronomy

Nov. 25, 2013 Rise Set
Actual Time 6:05 AM AST 5:39 PM AST
Civil Twilight 5:42 AM AST 6:02 PM AST
Nautical Twilight 5:16 AM AST 6:28 PM AST
Astronomical Twilight 4:50 AM AST 6:54 PM AST
Moon No Moon Rise 11:59 AM AST (11/25)
Length of Visible Light 12h 19m
Length of Day
11h 34m
Waning Gibbous, 51% of the Moon is Illuminated
Nov 25
Waning Gibbous
Nov 25
Last Quarter
Dec 2
New
Dec 9
First Quarter
Dec 17
Full

Hourly Weather History & Observations

Time (AST) Temp. Heat Index Dew Point Humidity Pressure Visibility Wind Dir Wind Speed Gust Speed Precip Events Conditions
12:00 AM 75.2 °F - 75.2 °F 100% 29.86 in 6.2 mi NW 6.9 mph - N/A   Mostly Cloudy
1:00 AM 75.2 °F - 75.2 °F 100% 29.86 in 5.0 mi South 3.5 mph - N/A   Mostly Cloudy
2:00 AM 75 °F - 74 °F 96% 29.85 in 6 mi West 3.5 mph - -   Mist
2:00 AM 75.2 °F - 73.4 °F 94% 29.83 in 5.6 mi West 3.5 mph - N/A   Scattered Clouds
3:00 AM 73.4 °F - 73.4 °F 100% 29.83 in 5.6 mi WNW 3.5 mph - N/A   Scattered Clouds
4:00 AM 73.4 °F - 73.4 °F 100% 29.83 in 6.2 mi Calm Calm - N/A   Scattered Clouds
5:00 AM 74 °F - 73 °F 97% 29.85 in 9 mi East 5.8 mph - -   Mist
5:00 AM 73.4 °F - 73.4 °F 100% 29.83 in 6.2 mi East 5.8 mph - N/A   Scattered Clouds
6:00 AM 73.4 °F - 73.4 °F 100% 29.83 in 6.2 mi Calm Calm - N/A   Scattered Clouds
7:00 AM 75.2 °F - 73.4 °F 94% - 5.0 mi Calm Calm - N/A   Scattered Clouds
8:00 AM 77 °F - 76 °F 94% 29.90 in 7 mi ENE 5.8 mph - - Rain Light Rain
8:00 AM 77.0 °F - 75.2 °F 94% 29.89 in 6.2 mi ENE 5.8 mph - N/A   Partly Cloudy
9:00 AM 80.6 °F 87.1 °F 77.0 °F 89% 29.92 in 6.2 mi ESE 12.7 mph - N/A   Scattered Clouds
10:00 AM 82.4 °F 90.9 °F 77.0 °F 84% 29.89 in 6.2 mi NE 11.5 mph - N/A   Scattered Clouds
11:00 AM 82.4 °F 89.5 °F 75.2 °F 79% 29.89 in 6.2 mi East 5.8 mph - N/A   Scattered Clouds
12:00 PM 87.8 °F 99.7 °F 77.0 °F 70% 29.86 in 6.2 mi ESE 8.1 mph - N/A   Mostly Cloudy
1:00 PM 86.0 °F 95.1 °F 75.2 °F 70% 29.83 in 6.2 mi East 4.6 mph - N/A   Mostly Cloudy
2:00 PM 81 °F - 77 °F 83% 29.85 in 5 mi East 24.2 mph - - Rain Light Rain
2:00 PM 80.6 °F 87.1 °F 77.0 °F 89% 29.83 in 5.0 mi East 24.2 mph - N/A Rain Light Rain
3:00 PM 77.0 °F - 75.2 °F 94% 29.83 in 5.0 mi ENE 18.4 mph - N/A Rain Light Rain
4:00 PM 78.8 °F - 75.2 °F 89% 29.83 in 6.2 mi NNE 4.6 mph - N/A   Mostly Cloudy
5:00 PM 78 °F - 73 °F 82% 29.84 in 10 mi Calm Calm - -   Partly Cloudy
5:00 PM 78.8 °F - 73.4 °F 83% 29.83 in 6.2 mi Calm Calm - N/A   Mostly Cloudy
6:00 PM 77.0 °F - 75.2 °F 94% 29.83 in 6.2 mi Calm Calm - N/A   Mostly Cloudy
7:00 PM 77.0 °F - 75.2 °F 94% 29.83 in 6.2 mi East 3.5 mph - N/A   Mostly Cloudy
8:00 PM 77 °F - 74 °F 87% 29.88 in 4 mi East 3.5 mph - - Rain Light Rain Showers
8:00 PM 77.0 °F - 75.2 °F 94% 29.86 in 4.3 mi East 3.5 mph - N/A Rain Light Rain Showers
9:00 PM 77.0 °F - 75.2 °F 94% 29.86 in 5.6 mi Calm Calm - N/A   Mostly Cloudy
10:00 PM 77.0 °F - 75.2 °F 94% 29.89 in 5.0 mi ENE 8.1 mph - N/A Rain Light Rain Showers
10:46 PM 77.0 °F - 75.2 °F 94% 29.92 in 2.5 mi ENE 15.0 mph - N/A Rain Light Rain Showers
11:00 PM 76 °F - 74 °F 92% 29.92 in 2 mi ENE 10.4 mph - - Rain Heavy Rain Showers
11:00 PM 77.0 °F - 75.2 °F 94% 29.92 in 1.2 mi ENE 10.4 mph - N/A Rain Rain Showers